[TLELIST] Archives

 

[list_settings.list_name] Current TLEs

November 12th 2008 PST

HST 1 20580U 90037B 08314.81844316 .00000319 00000-0 11776-4 0 2593 2 20580 028.4676 093.3497 0003778 132.4940 227.5967 15.00425805816871 ISS (ZARYA) 1 25544U 98067A 08315.56267354 .00012898 00000-0 98853-4 0 6234 2 25544 051.6451 346.0256 0003585 332.6129 164.1293 15.72507446571568 CXO 1 25867U 99040B 08315.66666667 +.00000662 +00000-0 +10000-3 0 02638 2 25867 064.4618 076.3890 7103485 277.4293 359.6743 00.37809423004180 ____________________________________________________________________ These 2-Line ...Continue Reading

[list_settings.list_name] Current TLEs

November 11th 2008 PST

HST 1 20580U 90037B 08314.81844316 .00000319 00000-0 11776-4 0 2593 2 20580 028.4676 093.3497 0003778 132.4940 227.5967 15.00425805816871 ISS (ZARYA) 1 25544U 98067A 08314.54872019 .00010072 00000-0 78333-4 0 6177 2 25544 051.6442 351.2199 0003657 328.8588 184.0286 15.72469917571404 CXO 1 25867U 99040B 08313.00000000 +.00000647 +00000-0 +10000-3 0 02629 2 25867 064.4435 076.4773 7099089 277.4190 356.7297 00.37807543004170 ____________________________________________________________________ These 2-Line ...Continue Reading

[list_settings.list_name] Current TLEs

November 10th 2008 PST

HST 1 20580U 90037B 08313.55462194 .00000316 00000-0 11572-4 0 2583 2 20580 028.4681 101.5953 0003707 119.9550 240.1406 15.00425478816689 ISS (ZARYA) 1 25544U 98067A 08313.71360074 .00009053 00000-0 70945-4 0 6110 2 25544 051.6446 355.4997 0003551 325.2073 136.9922 15.72447867571271 CXO 1 25867U 99040B 08313.00000000 +.00000647 +00000-0 +10000-3 0 02629 2 25867 064.4435 076.4773 7099089 277.4190 356.7297 00.37807543004170 ____________________________________________________________________ These 2-Line ...Continue Reading

[list_settings.list_name] Current TLEs

November 9th 2008 PST

HST 1 20580U 90037B 08311.89169803 +.00000332 +00000-0 +12842-4 0 02656 2 20580 028.4679 112.4403 0003716 101.8685 258.2319 15.00425084816435 ISS (ZARYA) 1 25544U 98067A 08312.86548611 .00008583 00000-0 67553-4 0 6062 2 25544 051.6443 359.8447 0003540 318.6336 019.3357 15.72429313571139 CXO 1 25867U 99040B 08313.00000000 +.00000647 +00000-0 +10000-3 0 02629 2 25867 064.4435 076.4773 7099089 277.4190 356.7297 00.37807543004170 ____________________________________________________________________ These 2-Line ...Continue Reading

[list_settings.list_name] Current TLEs

November 8th 2008 PST

HST 1 20580U 90037B 08311.89169803 .00000332 00000-0 12842-4 0 2577 2 20580 028.4679 112.4403 0003716 101.8685 258.2319 15.00425084816435 ISS (ZARYA) 1 25544U 98067A 08311.91500000 .00009158 00000-0 71815-4 0 5993 2 25544 051.6444 004.7127 0003473 315.1862 038.7382 15.72414245570985 CXO 1 25867U 99040B 08310.37500000 +.00000545 +00000-0 +10000-3 0 02617 2 25867 064.4303 076.5391 7094333 277.4256 359.4212 00.37805920004164 ____________________________________________________________________ These 2-Line ...Continue Reading

[list_settings.list_name] Current TLEs

November 7th 2008 PST

HST 1 20580U 90037B 08310.82742628 .00000348 00000-0 14063-4 0 2564 2 20580 028.4677 119.3827 0003691 090.3331 269.7682 15.00424822816272 ISS (ZARYA) 1 25544U 98067A 08310.54246444 .00009831 00000-0 76827-4 0 5929 2 25544 051.6444 011.7440 0003356 309.9873 189.2767 15.72389684570778 CXO 1 25867U 99040B 08307.75000000 +.00000435 +00000-0 +10000-3 0 02607 2 25867 064.4199 076.6052 7089502 277.4383 002.0814 00.37805953004159 ____________________________________________________________________ These 2-Line ...Continue Reading

[list_settings.list_name] Current TLEs

November 6th 2008 PST

HST 1 20580U 90037B 08308.83191679 +.00000369 +00000-0 +15731-4 0 02629 2 20580 028.4683 132.4093 0003629 069.0789 291.0188 15.00424332815972 ISS (ZARYA) 1 25544U 98067A 08308.92479167 +.00011176 +00000-0 +86808-4 0 05800 2 25544 051.6451 020.0302 0003357 301.4383 034.7675 15.72360666570513 CXO 1 25867U 99040B 08307.75000000 +.00000435 +00000-0 +10000-3 0 02607 2 25867 064.4199 076.6052 7089502 277.4383 002.0814 00.37805953004159 ____________________________________________________________________ These 2-Line ...Continue Reading

[list_settings.list_name] Current TLEs

November 5th 2008 PST

HST 1 20580U 90037B 08307.96719457 .00000365 00000-0 15418-4 0 2541 2 20580 028.4684 138.0478 0003599 060.1484 299.9462 15.00423977815844 ISS (ZARYA) 1 25544U 98067A 08308.57226811 .00011572 00000-0 89746-4 0 5777 2 25544 051.6442 021.8348 0003213 297.1819 202.2311 15.72353686570465 CXO 1 25867U 99040B 08305.08333333 +.00000364 +00000-0 +10000-3 0 02598 2 25867 064.4125 076.6748 7083175 277.4589 359.0522 00.37805763004147 ____________________________________________________________________ These 2-Line ...Continue Reading

[list_settings.list_name] Current TLEs

November 4th 2008 PST

HST 1 20580U 90037B 08306.90292073 .00000367 00000-0 15556-4 0 2538 2 20580 028.4686 144.9902 0003544 048.1769 311.9121 15.00423592815688 ISS (ZARYA) 1 25544U 98067A 08306.53111337 .00013120 00000-0 10132-3 0 5635 2 25544 051.6434 032.2915 0003309 286.7565 171.1652 15.72308452570148 CXO 1 25867U 99040B 08305.08333333 +.00000364 +00000-0 +10000-3 0 02598 2 25867 064.4125 076.6748 7083175 277.4589 359.0522 00.37805763004147 ____________________________________________________________________ These 2-Line ...Continue Reading

[list_settings.list_name] Current TLEs

November 3rd 2008 PST

HST 1 20580U 90037B 08305.90516385 +.00000359 +00000-0 +14963-4 0 02602 2 20580 028.4685 151.4967 0003556 037.4239 322.6601 15.00423115815534 ISS (ZARYA) 1 25544U 98067A 08305.83231601 +.00013173 +00000-0 +10179-3 0 05587 2 25544 051.6438 035.8712 0003369 287.6395 172.2309 15.72289430570036 CXO 1 25867U 99040B 08305.08333333 +.00000364 +00000-0 +10000-3 0 02598 2 25867 064.4125 076.6748 7083175 277.4589 359.0522 00.37805763004147 ____________________________________________________________________ These 2-Line ...Continue Reading
  • This mailing list is a public mailing list - anyone may join or leave, at any time.
  • This mailing list is announce-only.

International Space Station (ISS) / Hubble Space Telescope (HST) / Chandra X-Ray Observatory Orbital Data via EMAIL

Privacy Policy:

Private list